Temperature
5 6 6 6 6 5 6 7 8 10 10 10 9 9 7 6 5 5 4 4 4 4 4 4 4 4 5 5 5 4 4 4 4 4 4 4 3 3 3 3 3 2 2 2
4 5 5 5 6 6 6 7 7 8 8 9 8 7 6 6 5 4 4 3 3 3 4 4 4 4 4 4 4 4 4 4 3 3 3 3 3 3 3 2 2 2 2 2
5 4 4 5 5 6 6 6 7 7 8 7 7 6 6 5 4 4 3 3 3 3 3 3 3 3 3 3 3 3 3 3 3 3 3 2 2 2 2 2 2 1 1 1
4 3 4 6 5 5 5 5 5 6 6 6 6 5 4 4 3 3 3 3 2 2 2 2 2 3 3 3 2 2 2 2 2 2 2 2 2 1 1 1 1 1 1 1
3 4 5 5 4 3 4 4 4 4 5 4 3 4 3 3 3 2 2 2 2 2 2 2 2 2 2 2 2 1 1 1 1 1 1 1 1 1 0 0 0 0 0 0
3 4 4 5 3 2 4 4 3 3 3 3 3 5 5 2 2 2 2 1 1 1 1 1 1 1 1 1 1 1 1 1 1 0 0 0 0 0 0 -0 -0 -0 -0 -0
2 3 4 3 2 3 4 4 2 1 2 2 3 3 2 1 1 1 1 1 1 1 1 0 0 0 0 0 0 0 0 0 0 0 -0 -0 -0 -0 -0 -1 -0 -0 -1 -1
2 2 3 1 2 3 3 1 0 0 0 0 0 0 -0 -0 -0 -0 -0 -0 -0 -0 -0 -0 -0 -0 -0 -0 -0 -0 -0 -0 -0 -0 -1 -1 -1 -1 -1 -1 -1 -1 -1 -1
2 3 1 0 0 0 0 -0 -1 -1 -1 -1 -1 -1 -1 -1 -1 -1 -1 -1 -1 -1 -1 -1 -1 -1 -1 -1 -1 -1 -1 -1 -1 -1 -1 -1 -1 -1 -1 -2 -2 -2 -2 -2
1 1 0 -1 -1 -1 -1 -1 -1 -1 -1 -1 -1 -2 -2 -2 -2 -2 -2 -2 -2 -2 -2 -1 -1 -1 -1 -2 -2 -1 -1 -1 -1 -2 -2 -1 -2 -2 -2 -2 -2 -2 -2 -2
0 -0 -1 -1 -2 -2 -2 -2 -2 -2 -2 -2 -2 -2 -2 -2 -2 -2 -2 -2 -2 -2 -2 -2 -2 -2 -2 -2 -2 -2 -2 -2 -2 -2 -2 -2 -2 -3 -3 -3 -3 -3 -3 -3
1 -1 -1 -1 -2 -2 -2 -2 -2 -3 -3 -3 -3 -3 -3 -3 -3 -3 -3 -3 -3 -3 -3 -3 -3 -3 -3 -3 -3 -3 -3 -3 -3 -3 -3 -3 -3 -3 -3 -3 -3 -3 -3 -3
-3 -3 -3 -3 -3 -3 -3 -3 -3 -3 -3 -3 -3 -3 -4 -3 -3 -3 -3 -3 -3 -3 -4 -4 -3 -3 -3 -3 -3 -3 -3 -3 -3 -3 -3 -3 -4 -4 -4 -3 -3 -3 -3 -3
-4 -4 -4 -4 -4 -4 -4 -4 -4 -4 -4 -4 -4 -4 -4 -4 -4 -4 -4 -4 -4 -4 -4 -4 -4 -4 -4 -4 -4 -4 -4 -4 -4 -4 -4 -4 -4 -4 -4 -4 -4 -4 -3 -3
-5 -5 -5 -5 -5 -5 -5 -5 -5 -5 -5 -5 -5 -5 -5 -5 -5 -5 -5 -5 -5 -5 -5 -5 -5 -4 -4 -4 -4 -4 -4 -4 -4 -4 -4 -5 -5 -5 -5 -5 -4 -4 -4 -4
-6 -6 -5 -5 -6 -5 -5 -5 -6 -6 -6 -6 -5 -5 -5 -5 -5 -5 -5 -6 -6 -6 -6 -5 -5 -5 -5 -5 -5 -5 -5 -5 -5 -5 -5 -5 -5 -5 -5 -5 -5 -5 -5 -5
-7 -7 -7 -7 -6 -6 -6 -6 -6 -6 -6 -6 -6 -6 -6 -6 -6 -6 -6 -6 -6 -6 -6 -6 -6 -6 -6 -6 -6 -6 -5 -5 -5 -5 -6 -6 -6 -6 -6 -6 -6 -6 -5 -5
-6 -6 -6 -6 -7 -7 -7 -6 -6 -6 -6 -6 -7 -7 -7 -7 -7 -7 -7 -7 -7 -7 -7 -7 -7 -7 -7 -6 -6 -6 -6 -6 -6 -6 -6 -6 -6 -6 -6 -6 -6 -6 -6 -5
-7 -7 -7 -7 -7 -7 -7 -7 -7 -7 -7 -7 -7 -7 -7 -7 -7 -8 -8 -7 -7 -7 -7 -7 -7 -7 -7 -7 -7 -7 -7 -7 -7 -7 -7 -7 -7 -7 -7 -7 -7 -6 -6 -6
-7 -7 -7 -7 -7 -7 -7 -7 -7 -7 -7 -8 -8 -8 -8 -8 -8 -8 -8 -8 -8 -8 -8 -8 -8 -8 -8 -8 -8 -8 -8 -7 -7 -7 -7 -7 -7 -7 -7 -7 -7 -7 -6 -6
-8 -8 -8 -8 -8 -8 -8 -8 -8 -8 -8 -8 -8 -8 -8 -8 -9 -9 -9 -8 -8 -8 -8 -8 -8 -8 -8 -8 -8 -8 -8 -8 -8 -8 -8 -8 -7 -7 -7 -7 -7 -7 -7 -7
-8 -8 -8 -8 -8 -8 -8 -8 -8 -8 -8 -9 -9 -9 -9 -9 -9 -9 -9 -9 -9 -9 -9 -9 -9 -9 -9 -9 -8 -8 -8 -8 -8 -8 -8 -8 -8 -8 -8 -8 -7 -7 -7 -7
-9 -9 -9 -9 -9 -9 -9 -9 -9 -9 -9 -9 -9 -9 -9 -9 -10 -10 -9 -9 -9 -9 -9 -9 -9 -9 -9 -9 -9 -9 -9 -8 -8 -8 -8 -8 -8 -8 -8 -8 -8 -7 -7 -7
-9 -9 -9 -9 -9 -9 -9 -9 -9 -9 -10 -10 -10 -10 -10 -10 -10 -10 -10 -9 -9 -9 -9 -9 -9 -9 -9 -9 -9 -9 -9 -9 -9 -8 -8 -8 -8 -8 -8 -8 -8 -7 -7 -7
-10 -10 -10 -10 -10 -10 -10 -10 -10 -10 -10 -10 -10 -10 -10 -10 -10 -10 -10 -9 -9 -9 -9 -9 -9 -9 -9 -9 -9 -9 -9 -9 -9 -9 -9 -8 -8 -8 -8 -8 -8 -7 -7 -7
-10 -10 -10 -10 -10 -10 -10 -10 -10 -10 -10 -10 -10 -10 -10 -10 -10 -10 -10 -10 -9 -9 -9 -9 -9 -9 -9 -9 -9 -9 -9 -9 -9 -9 -9 -9 -8 -8 -8 -8 -8 -7 -7 -7
-10 -10 -10 -10 -10 -11 -11 -11 -11 -11 -11 -11 -11 -10 -10 -10 -10 -10 -10 -10 -10 -9 -9 -9 -9 -9 -9 -9 -9 -9 -9 -9 -9 -9 -9 -9 -8 -8 -8 -8 -8 -7 -7 -7
Wind_Speed
4 2 5 8 12 14 13 12 10 10 10 7 4 2 2 1 1 1 1 1 0 0 0 0 0 1 1 2 3 3 3 4 5 6 6 7 7 8 8 9 9 10 10 11
4 4 5 7 11 15 16 15 14 11 10 5 3 2 2 2 2 2 2 1 1 1 0 1 1 2 2 3 4 4 4 5 5 6 6 7 7 8 8 9 9 9 10 11
4 3 3 8 11 13 12 12 12 14 11 4 3 3 3 3 3 3 2 2 1 1 1 2 2 3 3 4 4 4 4 5 6 6 6 7 7 8 8 9 9 10 10 11
2 4 8 2 1 6 9 8 8 7 5 6 5 3 3 2 3 2 1 1 2 2 2 2 3 3 3 3 3 4 4 5 6 6 7 8 8 8 8 8 9 10 11 11
3 5 5 2 0 2 6 5 5 7 6 3 2 2 2 1 1 1 2 2 2 2 2 3 3 3 3 3 4 4 5 6 6 7 8 8 9 9 9 9 9 10 10 10
3 5 5 1 1 1 3 4 1 3 5 3 4 5 3 0 1 1 2 2 2 2 2 2 3 3 3 4 4 5 6 7 7 7 8 9 9 10 9 9 9 9 10 10
5 5 4 1 1 3 5 1 1 1 2 3 3 2 0 1 2 2 2 2 2 2 2 3 3 3 3 4 5 6 7 7 7 8 8 9 9 9 9 9 9 9 10 10
5 5 5 1 3 3 1 2 1 1 0 1 1 0 0 1 1 2 2 3 3 3 3 4 4 4 4 5 6 6 7 7 7 8 7 7 8 9 9 8 9 9 9 10
4 3 1 2 2 1 1 0 0 1 0 1 1 0 0 1 2 2 2 3 3 3 4 4 5 4 5 6 7 7 7 7 7 8 7 7 8 8 8 7 7 7 8 8
3 3 1 1 0 1 1 1 1 1 1 0 0 1 1 1 2 3 3 3 4 4 4 5 6 6 6 6 7 7 7 8 7 7 7 7 6 6 7 7 7 7 7 8
3 2 1 1 1 1 1 2 2 2 1 0 0 1 2 2 3 3 4 4 4 4 5 6 6 7 7 6 6 7 7 7 7 6 7 7 7 7 8 7 7 8 7 7
3 2 2 1 1 1 1 2 2 2 2 2 1 1 2 2 3 3 4 4 4 5 6 7 7 7 7 7 7 7 7 7 6 6 6 6 7 8 8 9 11 10 10 9
2 2 1 0 1 2 1 2 2 2 1 2 2 1 2 3 3 3 4 4 5 6 6 7 7 7 7 7 7 7 7 7 6 6 6 6 6 7 8 8 8 9 9 10
2 1 0 1 1 2 2 2 3 2 2 2 2 2 2 2 3 4 4 5 5 6 6 7 7 8 8 8 7 7 7 7 7 6 6 6 6 6 6 7 8 7 7 9
2 2 1 0 1 2 2 2 2 3 3 3 3 2 2 3 3 4 5 5 5 6 6 7 7 8 8 8 7 8 7 6 6 6 6 6 6 6 6 7 7 7 6 7
2 1 1 1 1 1 1 1 1 2 3 3 3 3 3 4 4 5 5 5 5 6 7 7 8 9 8 8 8 7 6 8 8 6 6 6 5 5 5 5 6 6 6 6
1 0 0 1 2 2 2 2 2 3 3 4 4 4 4 4 4 5 5 5 6 6 7 7 8 8 8 8 7 6 6 7 8 6 5 5 5 5 5 5 5 5 5 6
2 2 2 3 3 3 3 3 3 3 4 4 4 4 4 4 5 6 6 6 6 7 7 7 8 8 8 7 7 6 6 5 5 5 5 5 5 5 5 5 5 5 5 6
1 1 2 2 3 3 3 3 3 4 4 4 4 4 4 5 6 6 7 6 7 7 8 8 10 8 8 8 7 5 5 5 5 5 4 5 5 5 4 4 4 4 4 4
2 2 2 3 3 3 3 4 4 4 4 4 4 4 5 6 6 6 6 6 6 6 8 9 9 7 7 7 8 5 5 5 4 4 4 4 4 4 4 4 4 4 4 4
3 3 3 3 3 4 3 4 4 4 5 5 4 5 5 6 6 6 6 6 7 7 8 9 7 6 6 6 7 4 4 4 4 4 4 4 4 4 4 4 4 4 4 4
3 3 3 4 4 4 4 4 4 4 4 5 5 5 5 6 6 6 6 6 7 9 7 6 6 7 7 7 4 4 4 4 4 4 4 4 4 4 4 4 4 4 3 4
4 4 4 4 4 4 5 4 4 4 4 5 5 5 6 6 5 5 6 5 6 9 7 5 7 9 9 5 4 4 4 4 4 4 4 4 4 4 4 4 4 3 3 3
4 4 4 4 3 3 4 5 5 4 4 5 5 5 5 5 5 5 5 8 9 9 6 7 9 9 7 4 4 3 3 3 4 4 4 4 4 4 4 4 3 3 3 3
4 4 4 3 3 3 4 5 5 4 4 4 5 5 4 4 5 5 6 6 8 8 6 7 9 8 5 4 3 3 3 3 4 4 4 4 4 4 4 3 3 3 3 3
4 4 4 4 4 4 4 4 4 4 4 4 4 4 4 4 5 5 5 5 6 7 6 5 5 5 4 3 3 3 3 4 4 4 4 4 4 4 4 3 3 2 2 2
4 3 3 3 4 4 4 3 4 4 4 4 5 5 5 5 4 4 5 5 5 4 4 4 4 3 3 3 3 3 3 3 3 3 3 3 3 3 3 3 3 2 2 2
Wind_Direction
254 248 193 206 204 202 211 220 225 231 230 232 238 230 204 192 167 148 131 105 107 136 93 50 350 337 323 311 311 309 299 292 288 288 289 290 291 293 294 292 290 289 288 286
230 226 214 227 220 215 221 226 234 243 246 250 254 244 224 220 200 206 224 259 280 291 289 294 311 318 319 314 313 306 298 297 301 299 296 296 296 296 296 296 295 293 290 290
220 217 202 236 226 217 218 221 225 234 238 214 232 243 239 224 207 211 226 252 267 279 294 306 309 311 307 308 312 308 305 305 307 307 305 304 302 299 296 298 298 296 295 294
184 180 222 232 117 213 218 226 229 237 237 226 238 248 252 240 227 238 259 274 282 293 304 312 320 325 321 316 314 310 309 311 313 312 308 307 304 301 301 300 298 297 295 293
195 219 248 251 233 192 203 230 235 233 238 239 224 237 241 211 223 266 285 287 289 294 299 304 314 323 320 314 314 311 312 312 311 309 307 306 303 301 302 299 298 297 295 295
205 223 231 256 30 260 188 223 226 223 230 222 199 227 230 27 338 330 334 327 326 324 315 311 320 321 311 308 307 307 307 306 305 304 302 301 300 300 300 297 296 298 297 297
217 232 247 333 333 177 203 228 56 210 214 202 212 252 335 6 356 353 348 342 340 337 334 330 326 319 308 306 305 308 307 304 304 303 300 299 300 300 301 300 298 298 298 298
206 222 236 78 149 190 269 30 74 114 162 185 186 76 83 37 10 4 359 351 346 342 337 332 327 320 313 313 316 314 309 305 305 304 303 302 302 302 302 299 297 298 299 301
207 224 17 151 187 281 342 99 357 10 27 133 147 241 333 343 346 347 345 341 339 337 333 330 329 321 310 313 317 314 310 307 307 307 306 305 303 303 303 298 296 297 298 299
216 231 245 177 53 24 39 67 63 45 32 90 182 258 302 320 326 330 332 330 328 328 327 325 327 321 311 310 311 308 308 310 309 308 308 308 304 300 300 297 296 296 298 299
228 251 274 253 295 340 53 56 47 28 8 357 138 285 295 304 311 314 318 321 319 314 312 313 317 315 313 313 311 307 307 308 308 305 303 303 301 298 295 290 290 296 295 296
232 221 232 256 7 351 27 7 7 2 354 354 325 298 304 303 308 310 313 317 317 314 310 310 312 311 313 315 308 304 304 305 304 303 303 301 303 305 301 294 302 301 301 301
306 343 313 2 41 42 15 358 351 341 327 329 332 316 304 305 312 315 316 318 314 311 309 310 312 311 314 313 306 300 298 299 299 299 299 300 301 303 308 312 310 308 310 312
17 14 4 18 2 12 28 26 26 23 8 350 337 329 320 313 313 317 317 316 313 311 312 313 313 313 317 314 308 302 298 296 295 294 294 294 296 298 301 305 311 315 320 322
360 337 282 9 40 34 36 38 28 12 6 357 348 334 322 312 308 310 312 313 311 311 311 312 311 312 318 316 309 303 299 298 297 295 293 293 295 297 299 301 304 309 316 324
330 18 110 113 59 9 6 5 347 327 332 329 328 326 321 310 304 307 312 312 309 308 310 310 308 311 315 314 309 304 300 301 303 298 298 299 299 299 301 302 307 312 316 321
230 248 295 297 308 312 308 302 295 295 304 308 309 314 315 311 308 310 313 314 309 303 304 304 305 309 310 308 305 302 301 304 305 300 297 298 299 300 302 303 306 311 314 322
275 258 253 253 264 281 296 304 301 299 300 302 301 300 300 300 299 303 307 310 310 307 307 307 308 310 309 308 305 300 298 299 302 299 299 302 305 304 305 306 309 312 317 324
322 305 292 286 278 274 282 295 301 301 300 297 295 295 296 294 294 297 301 303 304 307 312 315 313 311 309 309 308 298 298 300 302 302 303 307 308 307 308 308 310 313 317 323
344 335 325 315 310 299 293 297 298 297 296 294 293 294 297 299 299 298 299 295 294 297 303 307 310 309 308 308 309 300 300 300 300 302 305 306 307 308 310 310 311 314 318 323
335 333 328 322 319 316 304 297 294 295 298 296 292 291 295 298 299 296 295 297 302 305 305 306 308 308 309 311 309 304 302 301 300 299 300 303 307 310 312 313 315 317 320 322
324 321 319 318 317 316 314 310 302 297 299 300 299 295 295 297 299 297 288 284 295 305 308 304 306 310 315 312 307 306 305 304 300 298 298 301 303 305 308 311 313 317 318 319
314 312 312 313 311 309 312 312 307 299 295 296 296 295 294 294 293 292 296 298 303 307 309 304 310 314 316 311 304 302 302 301 299 299 298 299 300 302 303 306 308 311 314 315
320 318 316 315 313 309 309 310 308 302 296 294 290 288 289 293 294 290 287 297 307 308 307 308 313 316 316 310 306 303 300 298 297 297 297 297 299 300 302 303 304 306 310 311
318 314 311 312 312 307 303 304 308 307 306 304 302 299 292 285 283 292 296 299 306 309 308 311 317 319 316 307 303 299 296 294 296 297 296 296 298 300 302 301 300 301 305 307
318 313 308 301 295 293 296 299 304 306 308 308 310 310 309 304 295 293 295 301 303 307 307 307 311 315 313 308 303 300 296 297 297 295 294 295 296 297 299 299 297 294 296 299
321 320 317 319 318 311 306 302 300 301 300 297 300 306 309 308 305 305 305 306 308 310 310 309 309 309 308 306 303 299 296 295 295 291 291 291 292 294 295 294 292 292 294 296
Height
1433 1432 1433 1434 1436 1439 1440 1434 1433 1427 1430 1430 1434 1437 1440 1441 1442 1443 1444 1445 1445 1446 1446 1447 1447 1448 1448 1449 1449 1448 1448 1447 1446 1444 1443 1441 1439 1437 1435 1432 1430 1427 1424 1421
1435 1434 1433 1433 1432 1433 1434 1433 1433 1432 1431 1432 1436 1438 1439 1441 1442 1442 1443 1444 1444 1444 1445 1445 1445 1445 1445 1445 1445 1445 1444 1443 1441 1440 1438 1436 1434 1432 1429 1427 1424 1421 1418 1415
1430 1435 1434 1430 1428 1429 1429 1429 1429 1428 1428 1433 1435 1437 1438 1439 1440 1441 1442 1442 1442 1442 1442 1443 1443 1443 1442 1442 1442 1441 1440 1439 1437 1435 1433 1431 1429 1427 1424 1422 1419 1416 1413 1410
1432 1435 1431 1422 1426 1426 1427 1428 1430 1429 1430 1432 1434 1436 1437 1438 1439 1439 1440 1440 1440 1440 1440 1440 1440 1440 1440 1439 1438 1437 1436 1435 1433 1431 1429 1427 1425 1422 1420 1417 1414 1411 1407 1404
1432 1426 1421 1424 1428 1428 1428 1428 1430 1431 1431 1433 1434 1435 1436 1436 1437 1438 1438 1439 1438 1438 1438 1438 1438 1437 1437 1436 1435 1434 1433 1431 1429 1427 1425 1422 1420 1417 1415 1412 1409 1406 1403 1400
1431 1425 1421 1422 1427 1428 1429 1427 1429 1430 1431 1432 1433 1431 1433 1435 1435 1436 1436 1436 1436 1436 1435 1435 1435 1434 1434 1433 1432 1431 1429 1427 1425 1423 1421 1418 1416 1413 1410 1407 1404 1401 1398 1395
1429 1425 1420 1427 1428 1428 1427 1425 1430 1430 1430 1431 1431 1432 1434 1433 1434 1434 1434 1434 1434 1433 1433 1433 1432 1432 1431 1430 1429 1427 1425 1423 1421 1419 1417 1414 1411 1408 1406 1403 1400 1397 1394 1391
1428 1426 1424 1428 1428 1428 1427 1429 1429 1429 1430 1431 1431 1432 1432 1432 1432 1432 1432 1432 1431 1431 1430 1430 1430 1429 1428 1427 1425 1423 1421 1419 1417 1415 1412 1410 1407 1404 1401 1398 1395 1392 1389 1386
1424 1425 1427 1428 1428 1429 1429 1429 1429 1429 1429 1430 1430 1431 1431 1431 1431 1431 1431 1430 1430 1429 1428 1427 1427 1426 1425 1423 1422 1419 1417 1415 1413 1410 1408 1405 1403 1400 1397 1394 1391 1388 1385 1382
1426 1426 1428 1428 1428 1428 1428 1428 1429 1429 1429 1429 1429 1429 1430 1430 1430 1430 1429 1429 1428 1427 1426 1425 1424 1423 1422 1420 1418 1416 1413 1411 1409 1406 1404 1401 1399 1396 1393 1390 1388 1385 1382 1379
1425 1427 1428 1427 1428 1428 1428 1428 1428 1428 1428 1428 1428 1428 1429 1428 1428 1428 1427 1426 1426 1425 1424 1423 1421 1420 1418 1416 1414 1412 1410 1407 1405 1402 1400 1397 1395 1392 1390 1387 1385 1382 1379 1376
1422 1425 1426 1426 1427 1427 1427 1427 1427 1427 1427 1427 1427 1427 1427 1426 1426 1425 1425 1424 1423 1422 1421 1419 1418 1416 1414 1413 1410 1408 1406 1403 1401 1399 1396 1394 1391 1388 1385 1384 1381 1378 1376 1373
1425 1424 1425 1425 1425 1426 1426 1426 1426 1426 1426 1426 1425 1425 1425 1424 1424 1423 1422 1421 1420 1419 1417 1416 1414 1412 1411 1409 1407 1404 1402 1400 1397 1395 1392 1390 1387 1384 1381 1379 1377 1374 1371 1369
1424 1424 1424 1424 1425 1425 1425 1425 1425 1424 1424 1424 1423 1423 1422 1422 1421 1420 1419 1418 1417 1415 1414 1412 1410 1409 1407 1405 1402 1400 1398 1396 1393 1391 1389 1386 1384 1381 1378 1375 1372 1370 1368 1365
1423 1423 1423 1423 1423 1424 1423 1423 1423 1422 1422 1422 1421 1421 1420 1419 1418 1417 1416 1415 1414 1412 1410 1408 1406 1404 1403 1400 1398 1396 1394 1392 1389 1387 1385 1383 1380 1378 1375 1373 1370 1367 1365 1362
1422 1422 1422 1422 1422 1422 1422 1422 1421 1421 1420 1420 1419 1419 1418 1417 1416 1414 1413 1412 1410 1408 1406 1404 1402 1400 1398 1396 1394 1392 1390 1388 1386 1383 1381 1379 1377 1375 1372 1370 1368 1365 1362 1360
1421 1421 1421 1421 1420 1420 1420 1420 1419 1419 1418 1418 1417 1416 1415 1414 1413 1411 1410 1408 1406 1404 1402 1400 1398 1396 1394 1392 1390 1387 1385 1383 1382 1379 1377 1376 1374 1372 1370 1368 1365 1363 1361 1359
1420 1420 1419 1419 1418 1418 1418 1417 1417 1416 1416 1415 1414 1413 1412 1411 1409 1408 1406 1405 1403 1400 1398 1396 1394 1392 1390 1388 1386 1383 1382 1380 1378 1376 1374 1373 1371 1369 1367 1365 1363 1361 1359 1358
1418 1418 1418 1417 1417 1416 1415 1415 1414 1414 1413 1412 1411 1410 1409 1408 1406 1404 1403 1401 1398 1396 1394 1392 1390 1388 1386 1384 1382 1380 1378 1376 1375 1373 1371 1370 1368 1367 1365 1363 1362 1360 1358 1356
1417 1416 1416 1415 1415 1414 1413 1412 1412 1411 1410 1409 1408 1407 1405 1404 1403 1401 1399 1396 1394 1392 1390 1388 1386 1384 1382 1380 1379 1377 1375 1373 1372 1370 1369 1367 1366 1364 1363 1362 1360 1359 1357 1356
1415 1414 1414 1413 1412 1412 1411 1410 1409 1408 1407 1406 1405 1403 1402 1400 1399 1397 1394 1392 1390 1389 1386 1384 1382 1381 1379 1377 1376 1374 1372 1371 1369 1368 1366 1365 1364 1363 1361 1360 1359 1357 1356 1355
1413 1412 1411 1411 1410 1409 1408 1407 1406 1405 1404 1403 1401 1400 1398 1396 1394 1392 1390 1389 1386 1385 1383 1381 1379 1377 1376 1374 1373 1371 1370 1368 1367 1366 1364 1363 1362 1361 1360 1359 1357 1356 1355 1354
1411 1410 1409 1408 1407 1406 1405 1404 1403 1402 1400 1399 1398 1396 1394 1392 1391 1389 1386 1385 1383 1381 1379 1377 1376 1374 1373 1372 1370 1369 1367 1366 1365 1364 1363 1362 1361 1360 1359 1357 1356 1355 1355 1354
1409 1408 1407 1406 1405 1404 1402 1401 1400 1399 1397 1396 1394 1393 1391 1389 1387 1385 1383 1381 1380 1378 1376 1374 1373 1372 1370 1369 1367 1366 1365 1364 1363 1362 1361 1360 1360 1358 1357 1356 1355 1354 1354 1353
1408 1406 1405 1404 1402 1401 1400 1398 1397 1395 1394 1392 1391 1389 1388 1386 1384 1382 1380 1378 1377 1375 1373 1372 1370 1369 1367 1366 1365 1364 1363 1362 1361 1360 1360 1359 1358 1357 1356 1355 1354 1354 1353 1352
1406 1404 1403 1402 1400 1399 1397 1396 1394 1392 1391 1389 1387 1386 1384 1383 1381 1379 1377 1376 1374 1373 1371 1369 1368 1366 1365 1364 1363 1362 1361 1360 1359 1359 1358 1357 1356 1355 1355 1354 1353 1353 1352 1352
1404 1402 1401 1399 1398 1397 1395 1393 1392 1390 1388 1386 1384 1383 1381 1380 1378 1377 1375 1374 1372 1370 1369 1367 1366 1364 1363 1362 1361 1360 1359 1358 1357 1357 1356 1355 1355 1354 1353 1353 1352 1352 1352 1351